Year,Month,Day,Hour,Minute,Value (Times are PST for temperature in C)
2015,06,02,00,00,13.50
2015,06,02,00,01,13.50
2015,06,02,00,02,13.50
2015,06,02,00,03,13.50
2015,06,02,00,04,13.50
2015,06,02,00,05,13.50
2015,06,02,00,06,13.50
2015,06,02,00,07,13.50
2015,06,02,00,08,13.40
2015,06,02,00,09,13.40
2015,06,02,00,10,13.40
2015,06,02,00,11,13.40
2015,06,02,00,12,13.40
2015,06,02,00,13,13.40
2015,06,02,00,14,13.40
2015,06,02,00,15,13.40
2015,06,02,00,16,13.40
2015,06,02,00,17,13.40
2015,06,02,00,18,13.40
2015,06,02,00,19,13.40
2015,06,02,00,20,13.40
2015,06,02,00,21,13.40
2015,06,02,00,22,13.40
2015,06,02,00,23,13.40
2015,06,02,00,24,13.40
2015,06,02,00,25,13.40
2015,06,02,00,26,13.40
2015,06,02,00,27,13.40
2015,06,02,00,28,13.40
2015,06,02,00,29,13.40
2015,06,02,00,30,13.40
2015,06,02,00,31,13.40
2015,06,02,00,32,13.40
2015,06,02,00,33,13.40
2015,06,02,00,34,13.40
2015,06,02,00,35,13.40
2015,06,02,00,36,13.40
2015,06,02,00,37,13.40
2015,06,02,00,38,13.40
2015,06,02,00,39,13.40
2015,06,02,00,40,13.30
2015,06,02,00,41,13.30
2015,06,02,00,42,13.30
2015,06,02,00,43,13.30
2015,06,02,00,44,13.30
2015,06,02,00,45,13.30
2015,06,02,00,46,13.30
2015,06,02,00,47,13.30
2015,06,02,00,48,13.30
2015,06,02,00,49,13.30
2015,06,02,00,50,13.30
2015,06,02,00,51,13.30
2015,06,02,00,52,13.30
2015,06,02,00,53,13.30
2015,06,02,00,54,13.30
2015,06,02,00,55,13.30
2015,06,02,00,56,13.30
2015,06,02,00,57,13.30
2015,06,02,00,58,13.30
2015,06,02,00,59,13.30
2015,06,02,01,00,13.30
2015,06,02,01,01,13.30
2015,06,02,01,02,13.30
2015,06,02,01,03,13.30
2015,06,02,01,04,13.30
2015,06,02,01,05,13.30
2015,06,02,01,06,13.30
2015,06,02,01,07,13.30
2015,06,02,01,08,13.30
2015,06,02,01,09,13.30
2015,06,02,01,10,13.30
2015,06,02,01,11,13.30
2015,06,02,01,12,13.30
2015,06,02,01,13,13.30
2015,06,02,01,14,13.30
2015,06,02,01,15,13.30
2015,06,02,01,16,13.30
2015,06,02,01,17,13.30
2015,06,02,01,18,13.30
2015,06,02,01,19,13.30
2015,06,02,01,20,13.30
2015,06,02,01,21,13.30
2015,06,02,01,22,13.30
2015,06,02,01,23,13.30
2015,06,02,01,24,13.30
2015,06,02,01,25,13.30
2015,06,02,01,26,13.30
2015,06,02,01,27,13.30
2015,06,02,01,28,13.30
2015,06,02,01,29,13.30
2015,06,02,01,30,13.30
2015,06,02,01,31,13.30
2015,06,02,01,32,13.30
2015,06,02,01,33,13.30
2015,06,02,01,34,13.30
2015,06,02,01,35,13.30
2015,06,02,01,36,13.30
2015,06,02,01,37,13.30
2015,06,02,01,38,13.20
2015,06,02,01,39,13.20
2015,06,02,01,40,13.20
2015,06,02,01,41,13.20
2015,06,02,01,42,13.20
2015,06,02,01,43,13.20
2015,06,02,01,44,13.20
2015,06,02,01,45,13.20
2015,06,02,01,46,13.20
2015,06,02,01,47,13.20
2015,06,02,01,48,13.20
2015,06,02,01,49,13.20
2015,06,02,01,50,13.20
2015,06,02,01,51,13.20
2015,06,02,01,52,13.30
2015,06,02,01,53,13.30
2015,06,02,01,54,13.30
2015,06,02,01,55,13.30
2015,06,02,01,56,13.20
2015,06,02,01,57,13.20
2015,06,02,01,58,13.30
2015,06,02,01,59,13.20
2015,06,02,02,00,13.20
2015,06,02,02,01,13.20
2015,06,02,02,02,13.20
2015,06,02,02,03,13.20
2015,06,02,02,04,13.20
2015,06,02,02,05,13.20
2015,06,02,02,06,13.20
2015,06,02,02,07,13.20
2015,06,02,02,08,13.20
2015,06,02,02,09,13.20
2015,06,02,02,10,13.20
2015,06,02,02,11,13.20
2015,06,02,02,12,13.20
2015,06,02,02,13,13.20
2015,06,02,02,14,13.20
2015,06,02,02,15,13.20
2015,06,02,02,16,13.20
2015,06,02,02,17,13.20
2015,06,02,02,18,13.20
2015,06,02,02,19,13.20
2015,06,02,02,20,13.20
2015,06,02,02,21,13.20
2015,06,02,02,22,13.20
2015,06,02,02,23,13.20
2015,06,02,02,24,13.10
2015,06,02,02,25,13.10
2015,06,02,02,26,13.10
2015,06,02,02,27,13.10
2015,06,02,02,28,13.10
2015,06,02,02,29,13.10
2015,06,02,02,30,13.10
2015,06,02,02,31,13.10
2015,06,02,02,32,13.10
2015,06,02,02,33,13.10
2015,06,02,02,34,13.10
2015,06,02,02,35,13.10
2015,06,02,02,36,13.10
2015,06,02,02,37,13.10
2015,06,02,02,38,13.10
2015,06,02,02,39,13.10
2015,06,02,02,40,13.10
2015,06,02,02,41,13.10
2015,06,02,02,42,13.10
2015,06,02,02,43,13.10
2015,06,02,02,44,13.10
2015,06,02,02,45,13.10
2015,06,02,02,46,13.10
2015,06,02,02,47,13.10
2015,06,02,02,48,13.10
2015,06,02,02,49,13.10
2015,06,02,02,50,13.10
2015,06,02,02,51,13.10
2015,06,02,02,52,13.10
2015,06,02,02,53,13.10
2015,06,02,02,54,13.10
2015,06,02,02,55,13.10
2015,06,02,02,56,13.00
2015,06,02,02,57,13.10
2015,06,02,02,58,13.00
2015,06,02,02,59,13.00
2015,06,02,03,00,13.00
2015,06,02,03,01,13.00
2015,06,02,03,02,13.00
2015,06,02,03,03,13.00
2015,06,02,03,04,13.00
2015,06,02,03,05,13.00
2015,06,02,03,06,13.00
2015,06,02,03,07,13.00
2015,06,02,03,08,13.00
2015,06,02,03,09,13.00
2015,06,02,03,10,13.00
2015,06,02,03,11,13.00
2015,06,02,03,12,13.00
2015,06,02,03,13,13.00
2015,06,02,03,14,13.00
2015,06,02,03,15,13.00
2015,06,02,03,16,13.00
2015,06,02,03,17,13.00
2015,06,02,03,18,13.00
2015,06,02,03,19,13.00
2015,06,02,03,20,13.00
2015,06,02,03,21,13.00
2015,06,02,03,22,13.00
2015,06,02,03,23,13.00
2015,06,02,03,24,13.00
2015,06,02,03,25,13.10
2015,06,02,03,26,13.10
2015,06,02,03,27,13.10
2015,06,02,03,28,13.10
2015,06,02,03,29,13.10
2015,06,02,03,30,13.10
2015,06,02,03,31,13.10
2015,06,02,03,32,13.10
2015,06,02,03,33,13.10
2015,06,02,03,34,13.10
2015,06,02,03,35,13.10
2015,06,02,03,36,13.10
2015,06,02,03,37,13.10
2015,06,02,03,38,13.10
2015,06,02,03,39,13.10
2015,06,02,03,40,13.10
2015,06,02,03,41,13.00
2015,06,02,03,42,13.10
2015,06,02,03,43,13.10
2015,06,02,03,44,13.10
2015,06,02,03,45,13.10
2015,06,02,03,46,13.10
2015,06,02,03,47,13.00
2015,06,02,03,48,13.00
2015,06,02,03,49,13.10
2015,06,02,03,50,13.10
2015,06,02,03,51,13.00
2015,06,02,03,52,13.00
2015,06,02,03,53,13.00
2015,06,02,03,54,13.10
2015,06,02,03,55,13.10
2015,06,02,03,56,13.10
2015,06,02,03,57,13.10
2015,06,02,03,58,13.10
2015,06,02,03,59,13.10
2015,06,02,04,00,13.10
2015,06,02,04,01,13.10
2015,06,02,04,02,13.10
2015,06,02,04,03,13.10
2015,06,02,04,04,13.10
2015,06,02,04,05,13.10
2015,06,02,04,06,13.10
2015,06,02,04,07,13.10
2015,06,02,04,08,13.10
2015,06,02,04,09,13.10
2015,06,02,04,10,13.10
2015,06,02,04,11,13.10
2015,06,02,04,12,13.10
2015,06,02,04,13,13.10
2015,06,02,04,14,13.10
2015,06,02,04,15,13.10
2015,06,02,04,16,13.10
2015,06,02,04,17,13.10
2015,06,02,04,18,13.10
2015,06,02,04,19,13.10
2015,06,02,04,20,13.10
2015,06,02,04,21,13.10
2015,06,02,04,22,13.10
2015,06,02,04,23,13.10
2015,06,02,04,24,13.10
2015,06,02,04,25,13.10
2015,06,02,04,26,13.10
2015,06,02,04,27,13.10
2015,06,02,04,28,13.10
2015,06,02,04,29,13.10
2015,06,02,04,30,13.10
2015,06,02,04,31,13.10
2015,06,02,04,32,13.10
2015,06,02,04,33,13.10
2015,06,02,04,34,13.10
2015,06,02,04,35,13.10
2015,06,02,04,36,13.10
2015,06,02,04,37,13.10
2015,06,02,04,38,13.10
2015,06,02,04,39,13.10
2015,06,02,04,40,13.10
2015,06,02,04,41,13.10
2015,06,02,04,42,13.10
2015,06,02,04,43,13.10
2015,06,02,04,44,13.10
2015,06,02,04,45,13.10
2015,06,02,04,46,13.10
2015,06,02,04,47,13.10
2015,06,02,04,48,13.10
2015,06,02,04,49,13.10
2015,06,02,04,50,13.10
2015,06,02,04,51,13.10
2015,06,02,04,52,13.10
2015,06,02,04,53,13.10
2015,06,02,04,54,13.10
2015,06,02,04,55,13.10
2015,06,02,04,56,13.10
2015,06,02,04,57,13.10
2015,06,02,04,58,13.10
2015,06,02,04,59,13.10
2015,06,02,05,00,13.10
2015,06,02,05,01,13.10
2015,06,02,05,02,13.10
2015,06,02,05,03,13.10
2015,06,02,05,04,13.10
2015,06,02,05,05,13.10
2015,06,02,05,06,13.10
2015,06,02,05,07,13.10
2015,06,02,05,08,13.10
2015,06,02,05,09,13.10
2015,06,02,05,10,13.10
2015,06,02,05,11,13.10
2015,06,02,05,12,13.10
2015,06,02,05,13,13.10
2015,06,02,05,14,13.10
2015,06,02,05,15,13.10
2015,06,02,05,16,13.10
2015,06,02,05,17,13.10
2015,06,02,05,18,13.10
2015,06,02,05,19,13.10
2015,06,02,05,20,13.10
2015,06,02,05,21,13.10
2015,06,02,05,22,13.10
2015,06,02,05,23,13.10
2015,06,02,05,24,13.10
2015,06,02,05,25,13.10
2015,06,02,05,26,13.10
2015,06,02,05,27,13.10
2015,06,02,05,28,13.10
2015,06,02,05,29,13.10
2015,06,02,05,30,13.10
2015,06,02,05,31,13.10
2015,06,02,05,32,13.10
2015,06,02,05,33,13.10
2015,06,02,05,34,13.10
2015,06,02,05,35,13.10
2015,06,02,05,36,13.10
2015,06,02,05,37,13.10
2015,06,02,05,38,13.10
2015,06,02,05,39,13.10
2015,06,02,05,40,13.10
2015,06,02,05,41,13.10
2015,06,02,05,42,13.10
2015,06,02,05,43,13.10
2015,06,02,05,44,13.10
2015,06,02,05,45,13.10
2015,06,02,05,46,13.10
2015,06,02,05,47,13.10
2015,06,02,05,48,13.10
2015,06,02,05,49,13.10
2015,06,02,05,50,13.10
2015,06,02,05,51,13.10
2015,06,02,05,52,13.10
2015,06,02,05,53,13.10
2015,06,02,05,54,13.10
2015,06,02,05,55,13.10
2015,06,02,05,56,13.10
2015,06,02,05,57,13.10
2015,06,02,05,58,13.10
2015,06,02,05,59,13.10
2015,06,02,06,00,13.10
2015,06,02,06,01,13.10
2015,06,02,06,02,13.10
2015,06,02,06,03,13.10
2015,06,02,06,04,13.10
2015,06,02,06,05,13.10
2015,06,02,06,06,13.10
2015,06,02,06,07,13.10
2015,06,02,06,08,13.10
2015,06,02,06,09,13.10
2015,06,02,06,10,13.10
2015,06,02,06,11,13.20
2015,06,02,06,12,13.20
2015,06,02,06,13,13.20
2015,06,02,06,14,13.20
2015,06,02,06,15,13.20
2015,06,02,06,16,13.20
2015,06,02,06,17,13.20
2015,06,02,06,18,13.20
2015,06,02,06,19,13.20
2015,06,02,06,20,13.20
2015,06,02,06,21,13.20
2015,06,02,06,22,13.20
2015,06,02,06,23,13.30
2015,06,02,06,24,13.30
2015,06,02,06,25,13.30
2015,06,02,06,26,13.30
2015,06,02,06,27,13.30
2015,06,02,06,28,13.30
2015,06,02,06,29,13.30
2015,06,02,06,30,13.30
2015,06,02,06,31,13.30
2015,06,02,06,32,13.30
2015,06,02,06,33,13.30
2015,06,02,06,34,13.30
2015,06,02,06,35,13.30
2015,06,02,06,36,13.30
2015,06,02,06,37,13.30
2015,06,02,06,38,13.30
2015,06,02,06,39,13.30
2015,06,02,06,40,13.30
2015,06,02,06,41,13.30
2015,06,02,06,42,13.30
2015,06,02,06,43,13.30
2015,06,02,06,44,13.30
2015,06,02,06,45,13.30
2015,06,02,06,46,13.30
2015,06,02,06,47,13.30
2015,06,02,06,48,13.30
2015,06,02,06,49,13.30
2015,06,02,06,50,13.30
2015,06,02,06,51,13.30
2015,06,02,06,52,13.30
2015,06,02,06,53,13.30
2015,06,02,06,54,13.30
2015,06,02,06,55,13.30
2015,06,02,06,56,13.30
2015,06,02,06,57,13.30
2015,06,02,06,58,13.30
2015,06,02,06,59,13.40
2015,06,02,07,00,13.40
2015,06,02,07,01,13.40
2015,06,02,07,02,13.40
2015,06,02,07,03,13.40
2015,06,02,07,04,13.40
2015,06,02,07,05,13.40
2015,06,02,07,06,13.40
2015,06,02,07,07,13.40
2015,06,02,07,08,13.40
2015,06,02,07,09,13.40
2015,06,02,07,10,13.40
2015,06,02,07,11,13.40
2015,06,02,07,12,13.40
2015,06,02,07,13,13.50
2015,06,02,07,14,13.50
2015,06,02,07,15,13.50
2015,06,02,07,16,13.50
2015,06,02,07,17,13.50
2015,06,02,07,18,13.50
2015,06,02,07,19,13.50
2015,06,02,07,20,13.50
2015,06,02,07,21,13.50
2015,06,02,07,22,13.60
2015,06,02,07,23,13.60
2015,06,02,07,24,13.60
2015,06,02,07,25,13.60
2015,06,02,07,26,13.50
2015,06,02,07,27,13.60
2015,06,02,07,28,13.60
2015,06,02,07,29,13.60
2015,06,02,07,30,13.60
2015,06,02,07,31,13.60
2015,06,02,07,32,13.60
2015,06,02,07,33,13.60
2015,06,02,07,34,13.50
2015,06,02,07,35,13.50
2015,06,02,07,36,13.60
2015,06,02,07,37,13.60
2015,06,02,07,38,13.60
2015,06,02,07,39,13.60
2015,06,02,07,40,13.60
2015,06,02,07,41,13.60
2015,06,02,07,42,13.60
2015,06,02,07,43,13.60
2015,06,02,07,44,13.60
2015,06,02,07,45,13.60
2015,06,02,07,46,13.60
2015,06,02,07,47,13.60
2015,06,02,07,48,13.60
2015,06,02,07,49,13.70
2015,06,02,07,50,13.70
2015,06,02,07,51,13.70
2015,06,02,07,52,13.70
2015,06,02,07,53,13.70
2015,06,02,07,54,13.70
2015,06,02,07,55,13.70
2015,06,02,07,56,13.70
2015,06,02,07,57,13.70
2015,06,02,07,58,13.70
2015,06,02,07,59,13.70
2015,06,02,08,00,13.70
2015,06,02,08,01,13.70
2015,06,02,08,02,13.80
2015,06,02,08,03,13.80
2015,06,02,08,04,13.80
2015,06,02,08,05,13.90
2015,06,02,08,06,13.90
2015,06,02,08,07,13.90
2015,06,02,08,08,13.90
2015,06,02,08,09,13.90
2015,06,02,08,10,13.80
2015,06,02,08,11,13.80
2015,06,02,08,12,13.90
2015,06,02,08,13,14.00
2015,06,02,08,14,14.00
2015,06,02,08,15,14.00
2015,06,02,08,16,14.00
2015,06,02,08,17,14.00
2015,06,02,08,18,14.10
2015,06,02,08,19,14.10
2015,06,02,08,20,14.10
2015,06,02,08,21,14.20
2015,06,02,08,22,14.20
2015,06,02,08,23,14.20
2015,06,02,08,24,14.20
2015,06,02,08,25,14.20
2015,06,02,08,26,14.20
2015,06,02,08,27,14.20
2015,06,02,08,28,14.20
2015,06,02,08,29,14.30
2015,06,02,08,30,14.30
2015,06,02,08,31,14.20
2015,06,02,08,32,14.20
2015,06,02,08,33,14.30
2015,06,02,08,34,14.30
2015,06,02,08,35,14.40
2015,06,02,08,36,14.30
2015,06,02,08,37,14.30
2015,06,02,08,38,14.20
2015,06,02,08,39,14.20
2015,06,02,08,40,14.30
2015,06,02,08,41,14.20
2015,06,02,08,42,14.20
2015,06,02,08,43,14.30
2015,06,02,08,44,14.30
2015,06,02,08,45,14.40
2015,06,02,08,46,14.40
2015,06,02,08,47,14.40
2015,06,02,08,48,14.30
2015,06,02,08,49,14.30
2015,06,02,08,50,14.30
2015,06,02,08,51,14.30
2015,06,02,08,52,14.30
2015,06,02,08,53,14.40
2015,06,02,08,54,14.40
2015,06,02,08,55,14.40
2015,06,02,08,56,14.50
2015,06,02,08,57,14.50
2015,06,02,08,58,14.50
2015,06,02,08,59,14.50
2015,06,02,09,00,14.50
2015,06,02,09,01,14.50
2015,06,02,09,02,14.50
2015,06,02,09,03,14.50
2015,06,02,09,04,14.50
2015,06,02,09,05,14.40
2015,06,02,09,06,14.30
2015,06,02,09,07,14.30
2015,06,02,09,08,14.40
2015,06,02,09,09,14.30
2015,06,02,09,10,14.30
2015,06,02,09,11,14.30
2015,06,02,09,12,14.30
2015,06,02,09,13,14.40
2015,06,02,09,14,14.40
2015,06,02,09,15,14.40
2015,06,02,09,16,14.40
2015,06,02,09,17,14.40
2015,06,02,09,18,14.40
2015,06,02,09,19,14.50
2015,06,02,09,20,14.50
2015,06,02,09,21,14.40
2015,06,02,09,22,14.40
2015,06,02,09,23,14.50
2015,06,02,09,24,14.50
2015,06,02,09,25,14.50
2015,06,02,09,26,14.40
2015,06,02,09,27,14.30
2015,06,02,09,28,14.30
2015,06,02,09,29,14.40
2015,06,02,09,30,14.30
2015,06,02,09,31,14.30
2015,06,02,09,32,14.20
2015,06,02,09,33,14.30
2015,06,02,09,34,14.40
2015,06,02,09,35,14.40
2015,06,02,09,36,14.40
2015,06,02,09,37,14.50
2015,06,02,09,38,14.40
2015,06,02,09,39,14.40
2015,06,02,09,40,14.40
2015,06,02,09,41,14.30
2015,06,02,09,42,14.30
2015,06,02,09,43,14.40
2015,06,02,09,44,14.30
2015,06,02,09,45,14.40
2015,06,02,09,46,14.40
2015,06,02,09,47,14.30
2015,06,02,09,48,14.40
2015,06,02,09,49,14.40
2015,06,02,09,50,14.30
2015,06,02,09,51,14.30
2015,06,02,09,52,14.30
2015,06,02,09,53,14.40
2015,06,02,09,54,14.50
2015,06,02,09,55,14.40
2015,06,02,09,56,14.40
2015,06,02,09,57,14.30
2015,06,02,09,58,14.30
2015,06,02,09,59,14.40
2015,06,02,10,00,14.40
2015,06,02,10,01,14.40
2015,06,02,10,02,14.40
2015,06,02,10,03,14.50
2015,06,02,10,04,14.50
2015,06,02,10,05,14.50
2015,06,02,10,06,14.50
2015,06,02,10,07,14.60
2015,06,02,10,08,14.60
2015,06,02,10,09,14.60
2015,06,02,10,10,14.60
2015,06,02,10,11,14.70
2015,06,02,10,12,14.80
2015,06,02,10,13,14.70
2015,06,02,10,14,14.70
2015,06,02,10,15,14.80
2015,06,02,10,16,14.80
2015,06,02,10,17,14.80
2015,06,02,10,18,14.80
2015,06,02,10,19,14.70
2015,06,02,10,20,14.80
2015,06,02,10,21,14.80
2015,06,02,10,22,14.80
2015,06,02,10,23,14.80
2015,06,02,10,24,14.80
2015,06,02,10,25,14.80
2015,06,02,10,26,14.80
2015,06,02,10,27,14.80
2015,06,02,10,28,14.80
2015,06,02,10,29,14.80
2015,06,02,10,30,14.80
2015,06,02,10,31,14.80
2015,06,02,10,32,14.80
2015,06,02,10,33,14.80
2015,06,02,10,34,14.80
2015,06,02,10,35,14.80
2015,06,02,10,36,14.80
2015,06,02,10,37,14.80
2015,06,02,10,38,14.80
2015,06,02,10,39,14.80
2015,06,02,10,40,14.70
2015,06,02,10,41,14.70
2015,06,02,10,42,14.70
2015,06,02,10,43,14.80
2015,06,02,10,44,14.80
2015,06,02,10,45,14.80
2015,06,02,10,46,14.90
2015,06,02,10,47,14.90
2015,06,02,10,48,14.90
2015,06,02,10,49,14.90
2015,06,02,10,50,14.90
2015,06,02,10,51,14.90
2015,06,02,10,52,15.00
2015,06,02,10,53,15.10
2015,06,02,10,54,15.10
2015,06,02,10,55,15.10
2015,06,02,10,56,15.00
2015,06,02,10,57,15.00
2015,06,02,10,58,15.10
2015,06,02,10,59,15.00
2015,06,02,11,00,15.00
2015,06,02,11,01,15.00
2015,06,02,11,02,15.00
2015,06,02,11,03,14.90
2015,06,02,11,04,14.80
2015,06,02,11,05,14.80
2015,06,02,11,06,14.80
2015,06,02,11,07,14.80
2015,06,02,11,08,14.80
2015,06,02,11,09,14.80
2015,06,02,11,10,14.80
2015,06,02,11,11,14.80
2015,06,02,11,12,14.80
2015,06,02,11,13,14.70
2015,06,02,11,14,14.80
2015,06,02,11,15,14.80
2015,06,02,11,16,14.80
2015,06,02,11,17,14.80
2015,06,02,11,18,14.80
2015,06,02,11,19,14.70
2015,06,02,11,20,14.70
2015,06,02,11,21,14.80
2015,06,02,11,22,14.80
2015,06,02,11,23,14.80
2015,06,02,11,24,14.70
2015,06,02,11,25,14.80
2015,06,02,11,26,14.80
2015,06,02,11,27,14.80
2015,06,02,11,28,14.80
2015,06,02,11,29,14.80
2015,06,02,11,30,14.90
2015,06,02,11,31,15.00
2015,06,02,11,32,14.90
2015,06,02,11,33,14.90
2015,06,02,11,34,14.90
2015,06,02,11,35,14.90
2015,06,02,11,36,15.00
2015,06,02,11,37,15.10
2015,06,02,11,38,15.10
2015,06,02,11,39,15.10
2015,06,02,11,40,15.00
2015,06,02,11,41,15.00
2015,06,02,11,42,15.00
2015,06,02,11,43,15.00
2015,06,02,11,44,14.90
2015,06,02,11,45,14.90
2015,06,02,11,46,14.90
2015,06,02,11,47,15.00
2015,06,02,11,48,15.00
2015,06,02,11,49,15.00
2015,06,02,11,50,15.00
2015,06,02,11,51,15.10
2015,06,02,11,52,15.10
2015,06,02,11,53,15.10
2015,06,02,11,54,15.00
2015,06,02,11,55,15.00
2015,06,02,11,56,14.90
2015,06,02,11,57,14.90
2015,06,02,11,58,14.90
2015,06,02,11,59,14.90
2015,06,02,12,00,14.90
2015,06,02,12,01,15.00
2015,06,02,12,02,15.00
2015,06,02,12,03,14.90
2015,06,02,12,04,14.90
2015,06,02,12,05,15.00
2015,06,02,12,06,15.00
2015,06,02,12,07,15.00
2015,06,02,12,08,15.00
2015,06,02,12,09,15.00
2015,06,02,12,10,14.90
2015,06,02,12,11,14.90
2015,06,02,12,12,15.00
2015,06,02,12,13,15.00
2015,06,02,12,14,14.90
2015,06,02,12,15,15.00
2015,06,02,12,16,15.00
2015,06,02,12,17,14.90
2015,06,02,12,18,14.80
2015,06,02,12,19,14.80
2015,06,02,12,20,14.90
2015,06,02,12,21,14.90
2015,06,02,12,22,14.80
2015,06,02,12,23,14.90
2015,06,02,12,24,14.80
2015,06,02,12,25,14.80
2015,06,02,12,26,14.80
2015,06,02,12,27,14.80
2015,06,02,12,28,14.80
2015,06,02,12,29,14.80
2015,06,02,12,30,14.80
2015,06,02,12,31,14.80
2015,06,02,12,32,14.80
2015,06,02,12,33,14.80
2015,06,02,12,34,14.80
2015,06,02,12,35,14.80
2015,06,02,12,36,14.80
2015,06,02,12,37,14.80
2015,06,02,12,38,14.80
2015,06,02,12,39,14.90
2015,06,02,12,40,14.80
2015,06,02,12,41,14.80
2015,06,02,12,42,14.80
2015,06,02,12,43,14.80
2015,06,02,12,44,14.80
2015,06,02,12,45,14.80
2015,06,02,12,46,14.80
2015,06,02,12,47,14.80
2015,06,02,12,48,14.80
2015,06,02,12,49,14.80
2015,06,02,12,50,14.80
2015,06,02,12,51,14.80
2015,06,02,12,52,14.80
2015,06,02,12,53,14.80
2015,06,02,12,54,14.80
2015,06,02,12,55,14.80
2015,06,02,12,56,14.80
2015,06,02,12,57,14.80
2015,06,02,12,58,14.80
2015,06,02,12,59,14.80
2015,06,02,13,00,14.90
2015,06,02,13,01,14.80
2015,06,02,13,02,14.90
2015,06,02,13,03,14.90
2015,06,02,13,04,14.90
2015,06,02,13,05,14.90
2015,06,02,13,06,14.90
2015,06,02,13,07,14.90
2015,06,02,13,08,14.90
2015,06,02,13,09,14.90
2015,06,02,13,10,14.90
2015,06,02,13,11,14.90
2015,06,02,13,12,14.90
2015,06,02,13,13,14.80
2015,06,02,13,14,14.90
2015,06,02,13,15,14.90
2015,06,02,13,16,14.90
2015,06,02,13,17,15.00
2015,06,02,13,18,15.10
2015,06,02,13,19,15.10
2015,06,02,13,20,15.10
2015,06,02,13,21,15.20
2015,06,02,13,22,15.30
2015,06,02,13,23,15.20
2015,06,02,13,24,15.20
2015,06,02,13,25,15.20
2015,06,02,13,26,15.20
2015,06,02,13,27,15.20
2015,06,02,13,28,15.20
2015,06,02,13,29,15.20
2015,06,02,13,30,15.20
2015,06,02,13,31,15.20
2015,06,02,13,32,15.20
2015,06,02,13,33,15.10
2015,06,02,13,34,15.10
2015,06,02,13,35,15.10
2015,06,02,13,36,15.20
2015,06,02,13,37,15.10
2015,06,02,13,38,15.10
2015,06,02,13,39,15.10
2015,06,02,13,40,15.20
2015,06,02,13,41,15.10
2015,06,02,13,42,15.10
2015,06,02,13,43,15.10
2015,06,02,13,44,15.10
2015,06,02,13,45,15.00
2015,06,02,13,46,15.00
2015,06,02,13,47,15.00
2015,06,02,13,48,15.00
2015,06,02,13,49,15.00
2015,06,02,13,50,15.10
2015,06,02,13,51,15.10
2015,06,02,13,52,15.10
2015,06,02,13,53,15.00
2015,06,02,13,54,15.00
2015,06,02,13,55,15.00
2015,06,02,13,56,15.00
2015,06,02,13,57,15.00
2015,06,02,13,58,15.00
2015,06,02,13,59,15.10
2015,06,02,14,00,15.10
2015,06,02,14,01,15.10
2015,06,02,14,02,15.10
2015,06,02,14,03,15.10
2015,06,02,14,04,15.10
2015,06,02,14,05,15.10
2015,06,02,14,06,15.10
2015,06,02,14,07,15.20
2015,06,02,14,08,15.20
2015,06,02,14,09,15.10
2015,06,02,14,10,15.10
2015,06,02,14,11,15.20
2015,06,02,14,12,15.20
2015,06,02,14,13,15.20
2015,06,02,14,14,15.20
2015,06,02,14,15,15.20
2015,06,02,14,16,15.20
2015,06,02,14,17,15.30
2015,06,02,14,18,15.20
2015,06,02,14,19,15.20
2015,06,02,14,20,15.10
2015,06,02,14,21,15.10
2015,06,02,14,22,15.20
2015,06,02,14,23,15.10
2015,06,02,14,24,15.00
2015,06,02,14,25,15.00
2015,06,02,14,26,14.90
2015,06,02,14,27,14.80
2015,06,02,14,28,14.80
2015,06,02,14,29,14.80
2015,06,02,14,30,14.80
2015,06,02,14,31,14.80
2015,06,02,14,32,14.80
2015,06,02,14,33,14.80
2015,06,02,14,34,14.80
2015,06,02,14,35,14.80
2015,06,02,14,36,14.80
2015,06,02,14,37,14.90
2015,06,02,14,38,14.90
2015,06,02,14,39,15.00
2015,06,02,14,40,15.00
2015,06,02,14,41,15.00
2015,06,02,14,42,15.00
2015,06,02,14,43,15.00
2015,06,02,14,44,15.00
2015,06,02,14,45,15.00
2015,06,02,14,46,15.00
2015,06,02,14,47,15.00
2015,06,02,14,48,15.00
2015,06,02,14,49,15.10
2015,06,02,14,50,15.20
2015,06,02,14,51,15.20
2015,06,02,14,52,15.20
2015,06,02,14,53,15.30
2015,06,02,14,54,15.30
2015,06,02,14,55,15.30
2015,06,02,14,56,15.30
2015,06,02,14,57,15.30
2015,06,02,14,58,15.30
2015,06,02,14,59,15.30
2015,06,02,15,00,15.30
2015,06,02,15,01,15.40
2015,06,02,15,02,15.30
2015,06,02,15,03,15.30
2015,06,02,15,04,15.40
2015,06,02,15,05,15.40
2015,06,02,15,06,15.40
2015,06,02,15,07,15.40
2015,06,02,15,08,15.50
2015,06,02,15,09,15.50
2015,06,02,15,10,15.50
2015,06,02,15,11,15.50
2015,06,02,15,12,15.40
2015,06,02,15,13,15.40
2015,06,02,15,14,15.40
2015,06,02,15,15,15.40
2015,06,02,15,16,15.40
2015,06,02,15,17,15.40
2015,06,02,15,18,15.40
2015,06,02,15,19,15.40
2015,06,02,15,20,15.40
2015,06,02,15,21,15.40
2015,06,02,15,22,15.40
2015,06,02,15,23,15.50
2015,06,02,15,24,15.50
2015,06,02,15,25,15.50
2015,06,02,15,26,15.50
2015,06,02,15,27,15.40
2015,06,02,15,28,15.50
2015,06,02,15,29,15.60
2015,06,02,15,30,15.70
2015,06,02,15,31,15.70
2015,06,02,15,32,15.60
2015,06,02,15,33,15.60
2015,06,02,15,34,15.70
2015,06,02,15,35,15.70
2015,06,02,15,36,15.70
2015,06,02,15,37,15.70
2015,06,02,15,38,15.60
2015,06,02,15,39,15.60
2015,06,02,15,40,15.60
2015,06,02,15,41,15.60
2015,06,02,15,42,15.60
2015,06,02,15,43,15.60
2015,06,02,15,44,15.60
2015,06,02,15,45,15.70
2015,06,02,15,46,15.70
2015,06,02,15,47,15.70
2015,06,02,15,48,15.70
2015,06,02,15,49,15.70
2015,06,02,15,50,15.60
2015,06,02,15,51,15.60
2015,06,02,15,52,15.60
2015,06,02,15,53,15.60
2015,06,02,15,54,15.60
2015,06,02,15,55,15.60
2015,06,02,15,56,15.50
2015,06,02,15,57,15.50
2015,06,02,15,58,15.60
2015,06,02,15,59,15.60
2015,06,02,16,00,15.50
2015,06,02,16,01,15.50
2015,06,02,16,02,15.60
2015,06,02,16,03,15.60
2015,06,02,16,04,15.50
2015,06,02,16,05,15.40
2015,06,02,16,06,15.40
2015,06,02,16,07,15.30
2015,06,02,16,08,15.30
2015,06,02,16,09,15.30
2015,06,02,16,10,15.30
2015,06,02,16,11,15.20
2015,06,02,16,12,15.10
2015,06,02,16,13,15.10
2015,06,02,16,14,15.00
2015,06,02,16,15,15.00
2015,06,02,16,16,15.00
2015,06,02,16,17,15.00
2015,06,02,16,18,15.10
2015,06,02,16,19,15.20
2015,06,02,16,20,15.20
2015,06,02,16,21,15.30
2015,06,02,16,22,15.30
2015,06,02,16,23,15.30
2015,06,02,16,24,15.30
2015,06,02,16,25,15.30
2015,06,02,16,26,15.30
2015,06,02,16,27,15.30
2015,06,02,16,28,15.30
2015,06,02,16,29,15.30
2015,06,02,16,30,15.30
2015,06,02,16,31,15.30
2015,06,02,16,32,15.30
2015,06,02,16,33,15.40
2015,06,02,16,34,15.40
2015,06,02,16,35,15.40
2015,06,02,16,36,15.30
2015,06,02,16,37,15.30
2015,06,02,16,38,15.30
2015,06,02,16,39,15.30
2015,06,02,16,40,15.30
2015,06,02,16,41,15.40
2015,06,02,16,42,15.40
2015,06,02,16,43,15.40
2015,06,02,16,44,15.40
2015,06,02,16,45,15.40
2015,06,02,16,46,15.40
2015,06,02,16,47,15.30
2015,06,02,16,48,15.30
2015,06,02,16,49,15.30
2015,06,02,16,50,15.30
2015,06,02,16,51,15.30
2015,06,02,16,52,15.30
2015,06,02,16,53,15.30
2015,06,02,16,54,15.30
2015,06,02,16,55,15.20
2015,06,02,16,56,15.10
2015,06,02,16,57,15.00
2015,06,02,16,58,15.00
2015,06,02,16,59,15.10
2015,06,02,17,00,15.10
2015,06,02,17,01,15.10
2015,06,02,17,02,15.10
2015,06,02,17,03,15.10
2015,06,02,17,04,15.10
2015,06,02,17,05,15.10
2015,06,02,17,06,15.10
2015,06,02,17,07,15.00
2015,06,02,17,08,14.90
2015,06,02,17,09,14.90
2015,06,02,17,10,14.80
2015,06,02,17,11,14.80
2015,06,02,17,12,14.80
2015,06,02,17,13,14.80
2015,06,02,17,14,14.80
2015,06,02,17,15,14.70
2015,06,02,17,16,14.70
2015,06,02,17,17,14.70
2015,06,02,17,18,14.60
2015,06,02,17,19,14.60